Location: Namasale
(1.5000°N, 32.6167°E)
Time: 16:55:45
(UTC+00:00)

Vanguard 1 Rocket - Pass Details

Date: 22 April 2021
Orbit: 651 x 4225 km, 34.3° (Epoch: 17 May)

Event Time Altitude Azimuth Distance (km) Brightness Sun altitude
Rises 23:47:19 0° 240° (WSW) 6,898 - -57.4°
Reaches altitude 10° 23:54:10 10° 224° (SW) 6,476 - -55.8°
Maximum altitude 00:08:51 20° 183° (S) 6,439 - -52.5°
Exits shadow 00:09:01 20° 182° (S) 6,445 11.4 -52.4°
Drops below altitude 10° 00:25:36 10° 142° (SE) 7,356 12.1 -48.6°
Sets 00:34:29 0° 126° (SE) 8,067 12.6 -46.5°
